STARLINK-32436

Last updated on Fri Oct 04 2024 00:02:04 GMT+0000 (Coordinated Universal Time)

1 61215U 24171R 24277.58334491 -.01378544 00000+0 -11457-1 0 9991 2 61215 53.1607 231.8737 0000746 86.1431 193.2364 15.72368365 3287
UTC large
Height (km)
Speed (km/s)
/
Latitude / Longitude
Inclination (degrees)
Orbital Period (minutes)
Azimuth
Elevation
Range (km)
Doppler Factor

Next 0 passes for location: London (51.5072 / 0.1276)

Sorry there are no passes over London.